SCP
0 0 1 1 1 1 1 1 1 1 1 1 1 1 1 1 1 1 1 1 1 1 1 1 1 1 1 1 1 1 1 1 1 1 1 1 1 1 1 1 1 1 1
0 0 1 1 1 1 1 1 1 1 1 1 1 1 1 1 1 1 1 1 1 1 1 1 1 1 1 1 1 1 1 1 1 1 1 1 1 1 1 1 1 1 1
0 0 1 1 1 1 1 1 1 1 1 1 1 1 1 1 1 1 1 1 1 1 1 1 1 1 1 1 1 1 1 1 1 1 1 1 1 1 1 1 1 0 1
0 0 1 1 1 1 1 1 1 1 1 1 1 1 1 1 1 1 1 1 1 1 1 1 1 1 1 1 1 1 1 1 1 1 1 1 1 1 1 1 1 0 0
0 0 1 1 1 1 1 1 1 1 1 1 1 1 1 1 1 1 1 1 1 1 1 1 1 1 1 1 1 1 1 1 1 1 1 1 1 1 1 1 1 0 0
0 0 1 1 1 1 1 1 1 1 1 1 1 1 1 1 1 1 1 1 1 1 1 1 1 1 1 1 1 1 1 1 1 1 1 1 1 1 1 1 1 1 1
0 0 1 1 1 1 1 1 1 1 0 0 1 1 1 1 1 1 1 1 1 1 1 1 1 0 0 0 1 1 1 1 1 1 1 1 1 1 1 1 1 1 1
0 0 1 1 2 1 1 1 1 1 1 1 1 1 1 1 1 1 1 1 1 1 1 0 0 0 0 0 0 1 1 1 1 1 1 1 1 1 2 2 1 1 1
0 0 1 1 1 1 1 1 1 1 1 1 1 1 1 1 1 1 1 1 1 1 0 0 0 0 0 0 0 0 1 1 1 1 0 1 1 1 2 2 1 1 1
0 0 1 1 1 1 1 1 2 2 1 1 1 1 1 1 1 1 1 1 1 0 0 0 0 0 0 0 0 0 0 0 0 0 0 1 1 1 2 2 2 1 1
1 1 0 1 1 1 1 1 2 2 1 1 1 1 1 1 1 1 1 1 1 1 0 0 1 0 0 0 1 1 0 0 0 0 0 1 1 1 2 2 2 1 1
1 1 1 1 1 1 1 1 1 1 1 1 1 1 1 1 0 0 0 0 1 1 0 0 0 0 0 0 0 0 0 0 0 0 0 1 1 1 2 2 2 1 1
1 1 1 1 1 1 1 1 1 1 1 1 1 1 0 0 0 0 0 0 0 0 0 0 0 0 0 0 0 0 0 0 0 0 0 1 1 1 2 2 2 1 1
1 1 1 1 1 1 1 1 2 2 1 1 1 0 0 0 0 0 0 0 0 0 0 0 0 0 0 0 0 0 0 0 0 0 0 1 1 1 2 2 2 1 1
1 1 1 1 1 1 1 2 2 2 1 1 0 0 0 0 0 0 0 0 0 0 0 0 0 0 0 0 0 0 0 0 0 0 0 1 1 2 2 2 2 2 1
1 1 1 1 1 1 1 2 2 2 1 1 1 0 0 0 0 0 0 0 0 0 0 0 0 0 0 0 0 0 0 0 0 0 0 1 1 1 2 2 2 2 2
2 1 1 1 1 1 2 2 1 1 1 1 1 0 0 0 0 0 0 0 0 0 0 0 0 0 0 0 0 0 0 1 1 0 1 1 1 1 2 2 2 2 2
2 2 2 2 2 2 2 1 1 1 1 1 1 0 0 0 1 0 0 0 0 0 0 0 0 0 0 0 0 0 0 0 0 0 1 1 1 1 1 2 2 2 3
4 3 3 3 3 3 2 1 1 1 1 1 1 0 0 0 0 0 0 0 0 0 0 0 1 1 0 0 0 0 0 0 0 0 1 1 1 1 1 1 2 2 2
5 5 4 4 3 3 2 1 1 1 1 1 1 0 0 0 0 0 0 0 0 0 0 1 1 0 0 0 0 0 0 0 0 0 0 1 1 1 1 1 1 1 2
6 6 5 5 4 4 3 2 1 1 1 1 1 1 0 1 1 1 0 0 0 0 1 0 0 0 0 0 0 0 0 0 0 0 0 1 1 1 1 1 1 1 1
6 6 6 5 5 4 3 2 2 1 1 1 1 1 1 1 1 1 1 0 1 1 1 1 0 0 0 0 0 0 0 0 0 0 0 0 1 1 1 1 1 1 1
5 5 5 5 5 4 4 3 2 2 1 1 1 1 1 1 1 1 1 1 1 1 1 1 1 1 1 1 0 0 1 1 1 1 0 0 0 1 1 1 1 1 1
3 3 3 4 4 4 3 3 2 2 1 1 1 1 1 1 1 1 1 1 1 1 1 1 1 1 1 1 1 1 1 1 1 1 1 0 0 1 1 1 1 1 1
2 2 2 2 2 3 3 3 3 2 2 1 1 1 1 1 1 1 1 1 1 1 1 1 1 1 1 1 1 1 1 1 1 1 1 0 0 0 1 0 0 0 1
2 2 2 2 2 3 3 4 3 3 2 1 1 1 1 1 1 1 1 1 1 1 1 1 1 1 1 2 2 1 1 1 1 1 1 0 0 0 0 0 0 0 0
Wind_Speed
1 1 9 11 12 13 14 14 15 15 15 15 16 16 16 16 16 16 17 17 17 17 17 17 17 17 17 17 17 17 17 16 16 16 15 15 14 14 13 13 12 9 13
2 2 9 11 12 13 14 14 14 15 15 15 15 15 16 16 16 17 17 17 17 17 17 16 16 16 16 16 16 15 15 15 15 15 14 13 13 13 12 12 12 8 12
4 3 7 11 12 12 13 13 14 14 14 14 15 15 16 15 15 16 17 16 16 16 16 16 15 15 15 14 14 14 14 14 14 13 12 6 8 12 12 12 12 12 12
6 4 6 11 11 12 13 13 13 14 13 14 14 14 15 15 15 15 16 16 16 16 15 15 15 14 14 13 12 12 12 12 13 12 6 4 5 11 12 12 12 11 11
5 4 7 11 11 13 13 12 13 13 13 14 14 14 14 14 14 14 14 14 14 14 14 13 13 13 12 11 10 10 10 10 10 8 5 4 3 9 11 12 11 10 10
5 5 7 11 11 12 12 12 12 13 13 13 13 13 13 14 13 13 13 13 13 13 12 12 11 11 10 9 9 9 9 9 8 4 4 4 3 9 11 11 11 10 9
6 5 7 12 12 12 12 12 12 12 12 12 12 12 12 13 12 12 12 12 11 11 10 10 9 9 9 8 8 7 7 7 6 4 4 4 5 9 10 11 10 10 9
8 6 6 11 12 12 12 11 11 11 11 11 11 11 11 11 11 11 11 10 10 9 9 8 7 7 7 7 6 5 6 6 6 5 4 4 7 9 10 10 10 10 9
8 6 5 5 7 10 11 11 11 10 10 10 10 10 10 10 10 10 9 9 9 8 8 7 6 5 5 5 5 4 4 5 3 3 5 3 7 10 10 10 10 10 9
6 6 5 4 4 4 5 10 10 9 9 8 8 8 8 8 8 8 7 7 7 7 6 6 5 4 3 3 3 3 3 3 3 3 3 4 9 10 10 10 10 10 10
7 5 5 5 4 3 4 6 7 8 7 6 5 7 6 3 3 4 5 6 6 6 5 5 4 3 2 2 3 3 2 2 3 2 3 6 10 11 11 10 10 10 10
7 5 4 5 4 4 4 3 2 2 3 2 2 2 2 2 2 3 4 4 4 4 4 3 3 3 2 1 2 2 1 2 2 2 4 9 9 10 10 10 10 10 10
7 6 5 5 4 4 3 3 1 1 2 1 2 2 2 2 1 1 1 1 1 1 0 0 1 1 1 1 1 1 2 2 2 2 4 9 9 10 10 9 9 10 9
7 6 5 5 4 3 3 3 2 2 2 2 2 2 2 2 1 1 0 0 0 0 0 0 0 1 1 2 2 2 3 2 2 2 3 9 10 10 10 9 9 9 9
7 6 5 5 4 4 3 2 3 2 2 2 2 2 3 2 2 1 1 0 1 1 1 1 1 1 1 1 2 2 3 3 3 3 2 8 10 10 9 9 9 9 9
7 6 5 5 4 4 3 3 2 2 2 2 2 2 2 2 2 1 1 0 0 1 1 1 1 1 1 1 1 2 2 3 3 3 3 5 8 9 9 9 8 8 8
7 7 6 6 4 5 4 3 3 2 2 2 1 2 2 2 2 2 1 1 0 0 0 0 0 1 1 1 1 1 1 2 3 3 3 2 3 6 8 8 7 7 7
8 7 6 6 5 4 4 3 2 2 2 2 1 1 2 2 3 2 1 0 0 0 1 1 1 1 1 1 1 1 1 1 2 3 3 3 2 2 4 6 7 7 7
8 7 6 5 5 4 3 3 3 2 2 2 1 1 1 2 2 2 1 0 1 1 1 0 1 1 1 0 0 0 0 1 1 2 2 3 3 3 2 4 6 6 7
8 7 6 5 5 4 3 2 2 2 1 1 1 1 1 1 2 2 1 0 1 1 1 1 1 1 1 0 1 1 1 0 1 1 2 2 2 3 3 2 2 4 6
7 6 6 5 5 4 3 2 2 1 1 1 1 2 2 2 2 2 1 1 1 1 1 1 1 1 1 1 2 2 2 1 0 1 1 1 2 2 2 2 2 2 2
9 7 7 6 5 5 3 3 2 2 2 2 1 1 2 2 2 2 2 1 1 1 1 1 1 1 0 1 2 1 1 3 2 1 1 0 1 1 1 2 1 1 1
10 9 8 7 6 5 4 3 2 1 1 1 0 1 1 2 3 2 2 2 2 2 1 1 1 2 0 1 1 3 2 2 1 2 2 1 1 1 0 0 1 0 1
11 10 8 8 6 5 5 4 4 3 2 3 2 2 1 2 2 2 2 2 2 1 1 1 1 1 2 0 1 0 2 3 2 1 2 2 1 1 0 0 0 0 1
11 10 8 8 7 6 5 5 4 3 2 2 1 1 1 1 2 2 2 2 2 1 1 1 0 1 1 1 1 0 0 1 1 2 1 2 2 1 1 0 0 0 0
9 9 9 8 7 6 6 5 5 5 4 3 2 2 2 1 1 2 2 2 2 1 1 1 1 1 1 1 1 1 2 2 2 2 2 1 1 2 1 1 0 0 0
Wind_Direction
10 62 95 91 88 87 88 88 88 87 87 90 92 94 98 100 102 104 106 109 110 111 111 111 112 114 116 119 121 121 122 124 124 124 123 124 123 121 121 119 117 116 119
142 114 101 98 93 91 91 92 91 89 89 92 95 96 97 99 102 103 106 108 109 110 111 112 114 115 117 118 119 121 123 125 125 126 124 124 124 123 124 123 119 122 124
123 117 108 103 98 96 95 95 94 93 91 93 98 98 98 99 102 104 107 108 110 110 110 112 113 114 116 118 121 124 127 127 126 126 123 119 123 125 125 127 125 127 127
129 128 116 110 105 103 101 99 98 96 95 98 102 102 102 101 103 107 108 109 110 111 111 112 114 114 116 119 123 125 128 131 131 130 123 124 131 132 131 131 131 133 133
128 131 124 115 110 111 108 105 103 101 99 100 103 104 105 104 106 107 109 110 110 111 113 114 116 117 118 120 121 125 129 132 135 132 124 122 126 139 138 137 138 140 140
134 134 130 119 113 113 112 110 107 105 103 103 103 105 108 110 111 111 110 110 111 114 116 117 118 118 118 118 121 124 126 128 128 126 127 134 139 149 147 147 148 149 148
136 130 128 123 119 117 116 112 109 108 108 108 108 110 111 112 112 113 115 115 116 115 116 119 120 120 119 118 120 119 122 132 132 131 137 147 155 157 156 156 155 154 155
135 131 129 126 123 122 121 115 113 112 111 112 112 114 115 118 120 120 121 124 124 121 120 123 126 127 126 125 123 119 118 131 133 140 142 151 161 164 161 162 163 162 163
132 133 127 128 127 126 124 119 116 116 113 115 116 117 119 121 123 125 128 131 132 132 135 138 141 142 141 137 133 128 120 126 135 148 157 155 161 163 161 163 168 170 171
130 134 136 128 124 128 126 127 128 124 122 122 122 122 124 127 130 131 132 138 141 143 149 155 159 163 157 153 151 147 135 133 142 157 155 162 165 167 167 170 172 174 177
135 138 141 139 140 145 141 139 134 134 131 128 123 126 117 107 114 129 139 149 153 154 161 168 174 184 183 184 180 173 160 142 138 150 162 169 171 172 173 176 180 183 184
145 150 147 144 149 154 148 132 131 134 123 118 116 114 113 121 135 138 143 155 160 162 168 176 190 205 203 192 195 198 163 147 151 169 175 175 177 178 178 181 186 188 192
149 146 149 148 149 152 139 138 133 121 122 120 122 118 114 111 112 108 112 144 148 160 181 211 200 207 187 187 184 178 175 158 171 180 178 178 181 186 184 183 187 191 195
140 141 145 147 142 139 131 137 143 144 140 136 141 140 121 109 104 109 105 155 167 181 172 208 206 230 218 205 188 187 186 176 177 174 181 181 182 186 187 188 190 194 198
140 139 144 140 135 134 119 128 134 138 144 140 137 133 127 125 135 142 135 124 201 193 182 203 202 199 185 167 177 176 175 174 177 174 186 187 188 188 190 193 194 200 204
145 148 145 140 138 126 122 126 133 140 139 130 139 145 132 132 132 128 122 102 252 230 203 187 171 150 149 145 161 171 183 178 178 180 184 192 190 191 195 201 202 203 207
149 151 150 147 139 131 133 139 139 142 132 132 150 148 128 128 130 131 123 114 270 267 165 83 67 81 118 121 143 180 180 184 181 179 180 186 198 198 196 200 205 209 210
149 152 159 150 145 147 144 137 137 138 132 139 144 136 132 135 128 118 111 128 188 42 54 95 74 72 71 114 159 211 200 193 193 187 178 183 193 198 201 206 212 217 214
156 155 156 149 149 152 145 136 136 138 140 151 144 145 149 130 119 120 115 125 121 81 47 91 75 99 92 82 195 229 256 209 208 186 181 189 194 190 194 207 215 221 221
159 155 155 152 153 149 133 116 101 106 138 149 157 176 154 132 128 122 112 90 95 89 51 57 78 64 108 150 81 27 334 286 228 210 203 189 190 194 195 210 222 230 227
159 156 157 158 162 150 138 142 141 157 177 169 179 186 166 151 141 130 132 100 113 120 141 112 91 67 37 75 73 28 2 357 301 252 224 177 181 193 186 198 214 226 232
167 166 165 169 169 164 161 160 164 165 180 184 190 182 179 155 152 158 161 163 148 127 91 88 92 95 21 102 118 100 15 352 348 356 351 158 157 154 165 187 190 191 217
172 174 174 176 173 174 165 142 131 90 57 57 211 217 208 177 170 171 175 157 149 153 170 195 151 133 164 288 142 143 147 218 308 341 2 34 45 70 90 65 100 169 178
179 175 172 173 172 174 165 156 159 165 180 206 202 205 210 192 182 178 169 156 159 161 177 222 177 153 144 228 293 192 171 167 163 307 335 346 5 30 299 133 67 108 136
177 175 174 170 172 172 167 169 169 174 187 191 181 182 194 205 199 186 177 158 163 170 183 210 193 169 169 177 200 210 100 89 151 158 261 312 343 338 332 283 356 71 103
175 176 175 172 177 175 172 171 174 179 180 171 186 191 201 216 227 214 188 184 185 186 201 208 207 198 207 198 197 192 182 175 189 163 195 252 284 301 323 353 19 356 30